Location: Gad�tanya
(48.0500°N, 20.8500°E)
Time: 11:50:04
(UTC+00:00)

CZ-4C R/B - Pass Details

Date: 05 July 2020
Orbit: 632 x 1370 km, 63.4° (Epoch: 15 August)

Event Time Altitude Azimuth Distance (km) Brightness Sun altitude
Rises 23:26:13 0° 318° (NW) 3,791 6.1 -18.6°
Reaches altitude 10° 23:28:40 10° 318° (NW) 2,934 5.5 -18.5°
Maximum altitude 23:35:51 85° 232° (SW) 1,234 2.9 -18.2°
Drops below altitude 10° 23:44:08 10° 145° (SE) 3,364 4.9 -17.9°
Enters shadow 23:45:18 - 145° (SE) 3,761 5.2 -17.8°
